Total_Precipitation_Accumulation
0.00 0.01 0.01 0.02 0.02 0.03 0.07 0.09 0.18 0.24 0.17 0.19 0.34 0.52 0.67 0.78 1.01 1.14 1.17 1.10 1.12 1.42 1.85 2.08 2.38 2.84 3.60 4.32 4.99 5.09 5.26 4.71 4.04 3.46 3.02 2.88 2.63 2.34 2.29 2.16 1.97 1.80 1.61 1.52
0.02 0.04 0.03 0.02 0.03 0.05 0.09 0.12 0.20 0.22 0.15 0.17 0.34 0.61 0.79 0.89 0.87 0.94 0.97 1.01 1.10 1.48 1.94 2.32 2.85 3.21 3.21 3.72 4.41 4.47 4.10 3.80 3.31 2.88 2.69 2.51 2.40 2.10 1.91 1.76 1.69 1.48 1.37 1.37
0.04 0.05 0.03 0.03 0.05 0.10 0.12 0.14 0.18 0.16 0.15 0.22 0.40 0.75 1.05 0.99 0.76 0.69 0.73 0.79 0.94 1.28 1.80 2.25 2.66 3.07 3.02 3.37 3.48 3.08 2.84 2.82 2.74 2.53 2.40 2.29 2.23 2.04 1.72 1.42 1.31 1.21 1.14 1.11
0.03 0.03 0.03 0.04 0.06 0.07 0.08 0.08 0.07 0.07 0.13 0.28 0.42 0.95 1.35 1.14 0.86 0.72 0.73 0.84 0.92 1.03 1.20 1.52 1.86 2.29 2.48 2.53 2.44 2.34 2.27 2.24 2.41 2.40 2.17 1.98 1.65 1.50 1.37 1.20 1.19 1.20 1.07 1.00
0.03 0.03 0.03 0.04 0.05 0.05 0.05 0.04 0.05 0.08 0.13 0.27 0.48 0.81 1.20 1.19 1.14 0.99 0.85 0.88 0.81 0.81 0.85 1.04 1.17 1.38 1.66 1.87 1.90 1.84 2.07 2.14 2.15 2.11 2.04 2.01 1.74 1.51 1.39 1.38 1.45 1.39 1.20 1.03
0.05 0.05 0.04 0.03 0.04 0.04 0.04 0.05 0.12 0.25 0.37 0.69 0.68 0.73 1.08 1.03 0.99 0.98 0.80 0.68 0.64 0.65 0.68 0.84 0.91 0.97 1.09 1.22 1.30 1.40 1.64 1.83 1.89 1.85 1.83 1.84 1.78 1.65 1.41 1.31 1.32 1.25 1.18 1.06
0.14 0.12 0.09 0.05 0.05 0.05 0.05 0.09 0.32 0.69 1.01 1.17 0.72 0.70 0.91 0.79 0.80 0.86 0.66 0.44 0.40 0.47 0.49 0.58 0.66 0.74 0.81 0.82 0.91 1.06 1.26 1.43 1.55 1.60 1.60 1.65 1.77 1.64 1.40 1.19 1.18 1.11 1.00 0.95
0.15 0.18 0.10 0.05 0.05 0.06 0.06 0.07 0.19 0.34 0.49 0.70 0.75 1.10 1.02 0.66 0.62 0.54 0.36 0.25 0.25 0.38 0.40 0.39 0.42 0.48 0.59 0.60 0.68 0.80 0.89 1.00 1.13 1.34 1.50 1.46 1.52 1.38 1.24 1.29 1.19 1.04 0.86 0.90
0.07 0.06 0.05 0.05 0.05 0.07 0.05 0.05 0.06 0.10 0.16 0.44 0.83 1.18 0.97 0.55 0.51 0.37 0.25 0.19 0.23 0.28 0.36 0.35 0.32 0.31 0.37 0.39 0.45 0.55 0.72 0.90 0.98 1.08 1.28 1.38 1.30 1.24 1.27 1.32 1.24 1.12 1.03 0.95
0.04 0.02 0.04 0.05 0.05 0.07 0.06 0.06 0.06 0.07 0.15 0.34 0.69 1.05 1.10 0.81 0.58 0.36 0.27 0.27 0.34 0.31 0.39 0.41 0.31 0.26 0.31 0.32 0.36 0.49 0.65 0.86 1.03 1.04 1.02 1.06 1.23 1.26 1.32 1.31 1.13 1.07 1.05 1.04
0.04 0.02 0.03 0.04 0.06 0.08 0.08 0.08 0.09 0.10 0.12 0.21 0.52 0.77 0.67 0.63 0.46 0.34 0.37 0.44 0.32 0.29 0.35 0.38 0.29 0.25 0.30 0.33 0.40 0.51 0.62 0.87 1.05 0.97 0.97 1.05 1.18 1.22 1.24 1.38 1.33 1.20 1.12 1.08
0.05 0.03 0.04 0.08 0.11 0.10 0.10 0.10 0.11 0.14 0.16 0.17 0.28 0.48 0.42 0.47 0.42 0.49 0.56 0.52 0.40 0.37 0.34 0.37 0.34 0.36 0.39 0.44 0.48 0.58 0.65 0.80 0.91 0.93 0.99 1.05 1.12 1.15 1.13 1.17 1.22 1.25 1.16 1.08
0.06 0.05 0.07 0.21 0.31 0.22 0.14 0.10 0.11 0.13 0.13 0.16 0.31 0.50 0.43 0.46 0.47 0.50 0.51 0.47 0.53 0.54 0.48 0.46 0.48 0.52 0.48 0.49 0.58 0.66 0.73 0.79 0.90 1.06 1.04 1.00 1.03 0.97 0.96 1.00 1.04 1.12 1.18 1.21
0.07 0.06 0.08 0.22 0.33 0.35 0.26 0.17 0.16 0.13 0.14 0.17 0.24 0.44 0.43 0.54 0.65 0.53 0.55 0.51 0.49 0.49 0.47 0.44 0.45 0.48 0.51 0.55 0.60 0.65 0.73 0.82 0.90 0.92 0.92 0.92 0.91 0.91 0.97 1.02 1.04 1.08 1.11 1.20
0.09 0.07 0.05 0.09 0.17 0.20 0.21 0.20 0.18 0.13 0.12 0.17 0.22 0.34 0.48 0.58 0.69 0.58 0.56 0.64 0.67 0.52 0.43 0.37 0.34 0.44 0.56 0.62 0.61 0.63 0.72 0.82 0.93 0.95 0.89 0.84 0.86 0.91 0.94 0.95 0.99 1.02 1.07 1.10
0.15 0.11 0.10 0.11 0.14 0.14 0.16 0.18 0.15 0.11 0.09 0.10 0.18 0.34 0.49 0.62 0.64 0.59 0.50 0.48 0.64 0.56 0.41 0.37 0.37 0.46 0.55 0.56 0.57 0.54 0.57 0.67 0.78 0.85 0.90 0.94 0.93 0.89 0.94 0.97 0.98 1.02 1.10 1.22
0.28 0.22 0.21 0.21 0.17 0.18 0.25 0.20 0.17 0.14 0.12 0.13 0.23 0.36 0.51 0.63 0.56 0.59 0.56 0.48 0.48 0.44 0.39 0.45 0.49 0.48 0.50 0.52 0.49 0.49 0.49 0.60 0.80 0.90 0.92 1.02 1.10 1.02 1.09 1.13 1.12 1.14 1.20 1.32
0.38 0.39 0.31 0.28 0.31 0.37 0.28 0.22 0.21 0.23 0.24 0.22 0.26 0.37 0.58 0.75 0.64 0.57 0.57 0.55 0.49 0.39 0.38 0.42 0.43 0.44 0.46 0.47 0.48 0.48 0.50 0.58 0.78 0.95 0.99 1.14 1.29 1.21 1.24 1.26 1.29 1.35 1.42 1.46
0.39 0.47 0.47 0.42 0.43 0.45 0.36 0.32 0.34 0.42 0.50 0.43 0.44 0.56 0.61 0.58 0.55 0.57 0.52 0.47 0.44 0.41 0.40 0.39 0.42 0.43 0.45 0.50 0.51 0.55 0.67 0.79 0.91 1.03 1.14 1.31 1.47 1.54 1.53 1.50 1.59 1.65 1.68 1.73
0.34 0.45 0.54 0.56 0.63 0.70 0.64 0.51 0.47 0.59 0.90 0.74 0.59 0.61 0.61 0.59 0.70 0.69 0.49 0.43 0.40 0.37 0.38 0.41 0.47 0.48 0.48 0.54 0.59 0.66 0.81 1.00 1.13 1.16 1.18 1.27 1.46 1.56 1.60 1.61 1.78 1.93 1.97 1.97
0.52 0.53 0.56 0.63 0.73 0.72 0.63 0.57 0.61 1.03 1.33 0.95 0.81 0.83 0.87 0.84 0.78 0.65 0.50 0.50 0.47 0.40 0.43 0.47 0.50 0.57 0.62 0.69 0.78 0.89 0.97 1.08 1.10 1.10 1.13 1.21 1.45 1.72 1.77 1.83 1.91 2.03 2.10 2.15
0.69 0.70 0.68 0.74 0.96 1.05 0.68 0.61 0.94 1.24 1.16 1.18 1.14 1.12 1.07 0.92 0.73 0.60 0.53 0.55 0.48 0.46 0.48 0.49 0.52 0.57 0.66 0.77 0.92 1.00 1.02 1.05 1.09 1.10 1.17 1.31 1.56 1.66 1.75 1.91 1.97 2.12 2.24 2.25
0.77 0.87 0.86 0.95 1.14 1.03 0.81 0.88 0.92 0.98 1.10 1.15 1.08 1.07 1.03 0.97 0.81 0.69 0.61 0.58 0.57 0.54 0.53 0.58 0.58 0.62 0.69 0.80 0.98 1.12 1.11 1.11 1.11 1.11 1.16 1.26 1.40 1.50 1.64 1.71 1.70 1.80 1.92 1.94
0.87 0.77 0.98 1.29 1.27 1.09 0.93 0.87 0.88 0.84 0.90 0.90 0.85 0.80 0.79 0.77 0.70 0.59 0.54 0.59 0.64 0.69 0.66 0.66 0.64 0.67 0.71 0.76 0.94 1.08 1.09 1.11 1.11 1.06 1.04 1.13 1.31 1.39 1.46 1.58 1.60 1.69 1.77 1.83
1.06 1.01 1.20 1.54 1.51 1.32 1.18 1.03 1.00 0.87 0.85 0.83 0.79 0.75 0.69 0.60 0.58 0.55 0.47 0.46 0.49 0.55 0.58 0.58 0.59 0.64 0.66 0.72 0.89 1.03 1.06 1.08 1.12 1.08 1.05 1.12 1.23 1.33 1.41 1.53 1.62 1.64 1.68 1.66
0.96 1.12 1.38 1.57 1.44 1.38 1.37 1.05 0.98 1.02 0.93 0.81 0.78 0.72 0.66 0.56 0.50 0.48 0.45 0.40 0.40 0.47 0.54 0.57 0.61 0.63 0.60 0.65 0.76 0.86 1.03 1.19 1.24 1.17 1.09 1.08 1.09 1.18 1.25 1.34 1.34 1.28 1.26 1.25